STARLINK-32579, 61922

Orbit data source: Space-Track

STARLINK-32579, 61922 is a payload satellite owned by SpaceX/Seattle (US) in LEO that was launched on Mon, 11 Nov 2024 UTC via an FALCON 9 launch vehicle from the Air Force Eastern Test Range (AFETR). Payload-class satellites include a variety of spacecraft equipped with specific instruments for various scientific and technological missions. These include communications satellites like Starlink; space stations such as the ISS; scientific satellites like the Hubble; Earth observation satellites from companies like Planet Labs, Umbra, and HawkEye 360; GPS; miniature CubeSats for education and research; and military/defense satellites.

Loading next visibility...
Identifier
61922, 2024-207L
Orbit
LEO
Last TLE update
13 hours ago
Origin
Manufacturer
SpaceX/Seattle
Mission
Operational Commercial Communications
Bus & Motor
STARLINK V2M, Unknown motor
Mass
730 kg wet, ~700 kg dry
Launch date (UTC)
2024-11-11 (8 months ago)
Launch vehicle
FALCON 9
Launch site
Air Force Eastern Test Range (AFETR)
Object type
Payload
Rocket body
Debris
Shape & HBR
Box + 2 Pan, 29 m
Radar Cross Section
36.964 m², Large (>1 m²)

Expand to show TLE details & history

TLE from 13 hours ago
0 STARLINK-32579
1 61922U 24207L   25186.16330462  .00022368  00000-0  81968-3 0  9998
2 61922  42.9998 243.3138 0001342 262.7814  97.2885 15.27588917 37302
Epoch: 2025-07-05T03:55Z
TLE epoch observation values (Epoch: 2025-07-05T03:55:09.519Z)
Latitude
-0.00001°
Longitude
-98.88117°
Altitude
482.915 km
Speed
7.626 km/s
True Right ascension
16h 13m 15s
True Declination
0° 00' 00"
Sunlit
Object was in full shadow at epoch
Visualization orbit readout
Latitude
30.40474°
Longitude
39.28655°
Altitude
484.228 km
Speed
7.628 km/s
Apparent Right ascension
21h 55m 02s
Apparent Declination
-7° 08' 24"
Sunlit
Object is in daylight
Visualization observer readout
Local Sidereal Time
04:58:17
Azimuth
274.681° WNW
Elevation
-16.687°
Doppler factor
1
Orbital elements
Apogee altitude
485.889 km
Perigee altitude
484.047 km
Semi-major axis
6,863.105 km
Eccentricity
0.00013
Inclination
42.9998°
RAAN
243.3138°
Arg. of periapsis
262.7814°
True anomaly
Unknown
Mean anomaly
97.2885°
Eccentric anomaly
Unknown
Mean motion
3.81735 °/min
Orbital period
94.31 mins
BSTAR
0.00081968
Loading maneuver chart data...
Loading SW <> Apogee altitude chart data...
Loading historical data...
Loading historical data...
Loading historical data...
Loading historical data...
Loading historical data...
Loading historical data...
Loading historical data...

STARLINK-32579 Visibility forecast

Observer location: undefined°, undefined°

Span
Click to sort rows by Start time (UTC) header in descending order
Start Az.
Max El. time (UTC)
Max El. Az.
Max El.
End time (UTC)
End Az.
6 mins2025-07-06 06:47:59.107Z210.121° SW2025-07-06 06:50:59.107Z139.517° SSE28.787°2025-07-06 06:53:59.107Z84.852° E
6 mins2025-07-06 08:26:59.107Z264.041° W2025-07-06 08:29:59.107Z37.053° NE41.196°2025-07-06 08:32:59.107Z70.404° E
5 mins2025-07-06 10:06:59.107Z299.239° NW2025-07-06 10:08:59.107Z22.359° NNE37.914°2025-07-06 10:11:59.107Z80.52° E
5 mins2025-07-06 11:45:59.107Z282.01° WNW2025-07-06 11:47:59.107Z167.217° S43.598°2025-07-06 11:50:59.107Z117.103° SE
|